Lapse_Rate
6.5 6.5 6.6 6.7 6.8 6.7 6.6 6.6 6.6 6.6 6.7 6.7 6.5 6.4 6.4 6.4 6.4 6.5 6.4 6.6 7.0 7.3 7.2 7.3 7.4 7.4 7.5 7.5 7.4 7.3 7.2 7.4 7.4 7.3 7.2 7.0 6.9 6.8 6.6 6.6 6.5 6.4 6.3 6.2 6.3
6.5 6.5 6.5 6.6 6.6 6.6 6.6 6.7 6.7 6.7 6.8 6.9 6.8 6.6 6.5 6.4 6.6 6.7 6.6 6.9 7.2 7.4 7.3 7.3 7.4 7.5 7.5 7.5 7.4 7.3 7.3 7.3 7.3 7.2 7.2 7.1 6.9 6.8 6.7 6.6 6.5 6.4 6.3 6.2 6.3
6.4 6.5 6.5 6.6 6.6 6.6 6.6 6.7 6.7 6.7 6.8 7.0 6.9 6.7 6.6 6.7 6.8 7.0 7.0 7.2 7.3 7.6 7.4 7.4 7.5 7.5 7.5 7.4 7.3 7.2 7.2 7.3 7.2 7.1 7.0 7.0 6.9 6.8 6.7 6.7 6.4 6.4 6.4 6.4 6.3
6.5 6.5 6.6 6.7 6.7 6.6 6.6 6.6 6.8 6.8 7.0 7.1 7.1 6.9 6.8 6.9 7.2 7.3 7.5 7.6 7.6 7.7 7.5 7.5 7.4 7.4 7.4 7.3 7.2 7.1 7.1 7.1 7.1 7.0 6.9 6.9 6.8 6.8 6.9 6.6 6.7 6.7 6.6 6.6 6.4
6.5 6.6 6.7 6.7 6.8 6.9 6.8 6.7 6.8 6.9 7.0 7.1 7.2 7.1 7.0 7.2 7.5 7.7 7.7 7.7 7.7 7.8 7.7 7.6 7.4 7.4 7.3 7.2 7.1 7.0 7.0 7.0 7.0 6.9 6.8 6.8 6.8 6.9 6.8 6.9 7.0 6.9 6.9 6.8 6.7
6.5 6.6 6.7 6.7 6.8 7.0 7.0 6.9 6.9 6.9 7.0 7.1 7.2 7.2 7.2 7.3 7.6 7.8 7.9 7.9 7.8 7.8 7.9 7.7 7.4 7.3 7.2 7.2 7.1 7.0 6.9 6.9 6.8 6.8 6.8 6.8 6.8 6.8 6.9 6.9 6.8 6.9 6.8 6.8 6.7
6.5 6.4 6.5 6.7 6.8 7.0 7.0 7.0 7.1 7.1 7.1 7.1 7.2 7.3 7.5 7.6 7.6 7.8 7.8 7.7 7.7 7.7 7.7 7.7 7.6 7.3 7.2 7.1 7.1 6.9 6.8 6.7 6.7 6.8 6.7 6.8 7.0 7.1 7.1 7.0 6.9 6.8 6.8 6.8 6.7
6.5 6.6 6.5 6.5 6.7 7.0 7.1 7.1 7.2 7.2 7.2 7.2 7.2 7.3 7.6 7.6 7.7 7.6 7.6 7.6 7.7 7.7 7.6 7.5 7.3 7.1 7.1 7.0 7.0 6.8 6.8 6.8 6.8 6.8 6.7 6.6 7.3 6.9 7.1 7.0 6.9 6.9 6.8 6.8 6.8
6.4 6.5 6.5 6.5 6.5 6.6 6.8 7.0 7.1 7.1 7.2 7.3 7.2 7.1 7.4 7.7 7.7 7.6 7.5 7.4 7.6 7.6 7.5 7.4 7.2 6.9 6.8 6.8 6.9 6.8 6.8 6.7 6.6 6.7 6.7 6.6 7.1 7.0 6.9 7.0 7.1 7.0 7.0 7.2 7.1
6.3 6.2 6.4 6.5 6.5 6.5 6.5 6.7 6.9 6.9 7.0 7.1 7.2 7.2 7.4 7.5 7.5 7.5 7.3 7.3 7.4 7.5 7.5 7.3 7.1 6.9 6.8 6.6 6.9 7.1 7.0 7.0 6.9 6.8 6.8 6.8 7.2 7.3 7.1 7.1 7.6 7.5 7.5 7.5 7.4
6.4 6.4 6.4 6.5 6.6 6.6 6.5 6.6 6.6 6.5 6.7 6.9 7.0 7.1 7.0 7.1 7.1 7.2 7.1 7.2 7.3 7.3 7.2 7.1 6.9 7.3 6.8 6.6 6.5 6.7 6.9 7.0 7.2 7.0 7.1 7.2 7.5 7.9 7.6 7.5 8.0 8.2 8.0 8.0 7.9
6.2 6.2 6.2 6.4 6.6 6.7 6.7 6.7 6.7 6.4 6.4 6.6 6.6 6.7 7.0 7.0 7.0 7.0 7.0 7.0 7.3 7.2 7.1 6.9 7.0 6.8 6.7 6.6 6.5 6.4 6.5 6.7 6.7 6.8 6.9 7.1 7.9 8.0 8.1 8.2 8.1 8.1 8.3 8.4 8.2
6.1 6.0 6.0 6.1 6.3 6.5 6.4 6.7 6.6 6.5 6.4 6.7 6.6 6.7 6.9 7.0 6.9 7.1 6.8 6.6 6.8 6.9 7.0 6.8 6.8 6.8 6.6 6.6 6.5 6.6 6.5 6.5 6.4 6.6 6.6 6.7 7.3 7.9 8.0 8.0 8.0 8.2 8.3 8.3 8.3
5.9 5.9 5.9 5.9 6.0 6.1 6.3 6.4 6.6 6.7 6.3 6.8 7.2 7.0 7.0 7.0 6.9 6.8 6.8 6.7 6.5 6.4 6.2 6.1 6.1 6.3 6.3 6.4 6.4 6.4 6.3 6.3 6.3 6.1 6.1 6.4 5.6 7.3 7.7 8.0 8.1 8.3 8.2 8.3 8.1
5.8 5.8 5.6 5.6 5.7 5.7 5.7 5.9 6.0 6.3 3.4 6.7 6.8 7.3 6.8 6.6 6.9 6.9 6.7 6.5 6.4 6.0 5.9 6.1 5.9 6.0 6.1 6.2 6.1 6.2 6.2 6.0 5.9 5.8 5.4 5.9 5.1 6.8 7.3 7.7 8.2 8.4 8.3 8.3 8.2
5.7 5.7 5.7 5.7 5.6 5.7 5.5 5.3 5.5 5.6 4.6 6.6 6.6 6.8 7.1 7.0 6.8 6.6 6.6 6.6 6.3 6.0 5.8 5.9 5.8 5.8 5.6 5.7 5.8 5.7 5.7 5.8 5.8 5.6 3.5 5.8 5.6 5.9 7.0 7.6 7.6 8.2 8.3 8.4 8.4
5.6 5.7 5.5 5.7 5.8 5.7 5.6 5.4 5.2 4.7 5.8 6.4 7.0 6.8 6.5 6.5 6.5 6.4 6.4 6.5 6.5 6.3 6.3 6.2 6.3 6.1 5.8 5.7 5.6 5.5 5.7 5.4 3.8 2.9 3.4 5.7 4.6 6.1 6.8 7.3 7.5 7.6 7.6 7.6 7.7
5.2 5.4 5.2 5.6 5.7 5.7 5.5 5.2 4.4 4.8 5.8 6.4 6.6 6.6 6.3 6.1 6.2 6.3 6.1 6.0 6.1 6.2 6.3 6.1 6.1 6.9 6.6 6.3 6.1 6.2 5.9 6.0 3.6 3.2 3.8 4.5 4.1 6.3 7.0 7.0 7.4 7.5 7.6 7.6 7.4
5.0 5.2 5.0 5.2 5.4 5.4 5.2 4.5 4.8 5.3 5.9 6.3 6.7 6.8 6.8 6.8 6.1 6.1 5.9 6.3 6.4 6.5 6.4 6.2 5.8 6.3 6.4 6.4 5.8 5.3 5.3 5.9 5.7 4.9 3.2 5.3 5.6 5.8 6.4 6.9 7.2 7.8 7.3 7.3 7.4
4.9 5.4 5.4 4.9 5.2 5.1 4.6 4.2 4.6 5.3 5.8 6.2 6.4 6.4 6.3 6.8 6.7 6.4 6.2 5.9 6.5 6.6 6.5 6.1 5.8 5.9 6.0 5.9 5.8 5.4 5.7 5.5 5.3 3.9 3.7 4.4 5.0 5.8 6.6 6.9 7.3 7.6 7.6 7.6 7.7
5.0 5.1 5.6 5.1 5.1 4.9 4.1 4.1 3.9 4.8 5.4 6.0 6.1 6.2 6.1 6.2 6.5 6.4 6.2 6.2 6.3 6.3 6.4 6.0 5.5 5.0 5.3 5.4 6.1 6.0 5.1 5.3 5.7 5.6 3.3 4.6 5.4 6.7 6.6 6.8 7.2 7.5 7.7 7.6 7.6
4.9 4.6 4.9 5.2 5.0 4.7 4.3 4.4 4.2 4.1 5.3 5.4 5.4 5.7 5.8 5.9 5.7 5.9 5.9 6.1 6.0 5.9 6.0 6.3 5.6 5.0 5.3 5.4 5.5 5.7 5.7 5.9 5.6 5.3 5.3 4.9 4.8 6.1 6.3 6.6 7.1 7.2 7.3 7.4 7.4
4.5 4.3 4.5 5.1 5.1 4.7 4.6 4.6 4.7 4.6 4.5 4.5 4.9 4.7 5.2 5.4 5.2 5.2 5.4 5.6 5.6 5.7 5.7 5.8 5.6 5.1 4.8 4.6 4.8 5.2 5.5 5.9 5.9 6.0 5.4 5.1 5.1 5.9 6.4 6.3 6.4 6.8 6.8 6.9 6.8
4.2 4.2 4.4 4.9 5.0 5.0 5.0 4.9 5.0 4.8 4.8 4.7 4.6 4.7 4.9 5.1 5.3 4.8 4.9 5.2 5.2 5.2 5.4 5.5 5.3 5.4 5.2 5.6 5.6 5.2 5.1 5.4 5.7 5.2 5.3 5.1 5.5 5.7 6.1 6.1 6.0 6.1 6.1 6.1 6.0
4.5 4.3 4.5 4.7 4.9 5.0 5.1 5.2 5.3 5.0 5.0 4.8 4.9 4.7 4.6 4.7 4.8 4.9 4.6 4.5 4.5 4.8 5.1 5.4 5.0 5.2 5.0 5.1 5.0 4.6 4.8 5.0 5.2 5.2 5.6 5.4 5.8 5.4 5.9 5.8 5.7 5.5 5.5 5.9 6.1
4.5 4.3 4.4 4.6 4.5 4.5 4.5 4.5 4.4 4.4 4.4 4.4 4.6 4.3 4.3 4.2 3.9 4.0 4.1 4.0 4.4 4.4 4.8 4.9 4.9 4.7 4.6 4.9 4.8 4.7 4.6 4.3 4.7 5.0 5.3 5.1 4.8 5.8 5.6 5.2 5.0 5.0 5.1 5.1 5.0
5.3 4.8 4.7 4.6 4.5 4.2 4.1 4.1 4.0 3.9 3.8 3.9 4.0 3.9 3.8 3.7 3.6 3.5 3.5 3.6 3.6 3.7 3.8 3.9 4.1 3.9 3.7 3.7 3.9 4.0 4.7 5.3 5.2 4.8 4.9 5.3 5.5 5.0 4.7 4.7 4.8 5.0 5.0 5.0 5.3
Wind_Speed
9 11 13 13 14 15 15 16 15 15 13 10 10 10 12 13 4 3 3 3 6 11 9 5 1 5 3 3 3 2 4 3 5 7 4 3 4 2 0 3 2 4 4 2 6
10 11 13 15 16 16 17 17 16 15 14 10 8 8 10 9 2 4 1 8 7 7 4 5 3 5 3 2 3 4 3 6 4 4 2 4 3 4 2 2 3 1 1 2 6
12 13 14 16 17 17 18 18 18 16 13 10 9 8 9 2 1 1 7 9 7 1 2 1 1 2 2 2 2 1 2 3 1 2 2 3 1 0 3 5 7 8 6 7 5
11 13 16 18 19 20 20 21 20 17 15 10 7 7 5 2 1 1 10 9 6 1 2 1 2 2 2 1 2 1 0 1 3 2 2 3 0 3 6 5 2 6 7 8 9
11 14 15 18 20 21 22 23 22 19 15 10 7 6 2 3 1 3 9 8 2 1 3 2 2 2 2 1 2 2 0 2 1 2 1 1 3 5 8 9 6 5 8 10 8
10 12 15 17 18 20 21 22 24 20 14 8 6 3 3 1 3 3 6 2 4 3 2 3 3 3 4 2 3 0 2 1 2 2 2 1 3 2 3 2 5 5 8 8 9
8 11 14 16 17 20 21 22 22 18 9 5 4 1 2 4 2 2 3 1 1 1 3 2 3 1 3 3 1 2 1 2 2 2 2 1 6 8 5 2 7 8 7 7 9
10 11 14 17 19 21 22 22 20 10 3 3 3 1 3 1 1 1 2 1 2 1 3 3 1 4 3 2 5 3 4 3 2 3 1 2 8 4 3 4 6 8 7 8 8
9 12 15 17 21 24 24 22 8 3 2 3 2 0 4 2 2 1 1 2 1 1 1 2 3 3 3 4 4 6 2 2 5 2 2 2 7 4 1 3 7 8 8 8 8
9 10 13 17 21 26 27 13 3 2 1 1 1 2 0 2 1 1 0 1 2 3 3 4 5 3 3 3 4 5 3 4 5 3 3 4 13 13 9 8 11 11 9 9 9
8 11 13 15 20 24 11 3 5 3 5 3 2 3 3 6 2 2 1 2 2 4 4 2 3 7 10 7 3 3 3 5 3 2 2 6 9 16 10 8 12 11 11 12 11
5 7 11 15 20 19 2 5 4 2 6 1 2 2 2 1 4 1 2 3 3 5 5 3 7 7 4 5 5 4 4 5 3 2 1 5 17 14 9 7 8 13 12 12 6
5 5 10 15 15 5 3 3 1 3 1 5 2 1 1 3 3 2 1 2 1 4 6 7 2 5 5 4 5 4 5 3 4 3 1 5 9 6 3 4 6 8 7 7 13
7 4 7 16 4 3 2 0 2 1 5 6 3 2 1 2 1 0 1 1 2 6 5 5 0 5 3 4 6 4 4 4 3 3 4 3 5 7 7 11 7 10 8 8 9
6 3 3 6 2 2 1 1 2 3 3 3 3 2 4 5 4 1 2 2 2 2 5 5 4 3 3 4 7 3 4 4 3 4 4 1 3 9 3 9 14 8 11 11 11
4 3 2 2 2 1 3 2 2 6 6 3 2 3 4 3 3 3 3 2 3 3 1 4 2 2 1 4 3 8 6 5 4 3 1 5 7 5 5 7 6 5 6 6 7
3 3 1 0 3 3 3 3 4 4 3 2 3 2 2 3 2 2 4 5 6 5 5 1 5 4 4 5 6 3 5 3 4 2 6 1 2 8 8 12 7 7 5 6 7
3 2 2 3 3 2 2 4 5 4 6 2 3 2 3 5 2 4 3 2 4 4 3 6 5 8 6 7 8 7 7 5 7 3 4 3 7 7 9 8 8 6 6 5 9
4 2 1 2 5 2 3 5 8 7 4 6 3 3 3 2 3 3 6 4 8 11 9 6 6 1 2 3 2 5 4 2 2 2 1 6 7 7 11 13 8 6 5 8 7
3 2 2 0 4 2 5 11 6 6 3 3 8 7 6 4 6 6 7 4 4 11 2 3 3 1 1 2 2 4 5 3 1 3 7 5 5 6 6 10 9 6 9 8 6
3 2 1 2 4 4 12 8 6 6 4 5 5 3 6 5 7 5 5 3 5 2 5 5 4 2 3 8 11 3 3 1 2 4 4 9 7 7 9 6 6 9 8 8 8
3 2 1 1 7 3 11 5 5 6 6 6 1 5 6 7 5 6 8 5 6 7 8 6 4 5 11 1 2 3 7 9 5 6 4 2 18 5 4 2 3 8 7 5 7
2 0 1 1 6 8 3 10 0 6 7 6 9 7 4 5 3 7 6 4 5 2 4 4 4 3 4 4 3 5 4 5 1 1 19 4 15 4 3 6 4 7 8 6 6
2 1 1 2 2 1 2 1 6 5 4 3 3 1 3 5 8 5 6 4 4 5 6 2 4 6 14 3 3 4 6 7 10 9 11 21 23 20 10 7 9 8 8 8 7
1 1 2 2 1 2 2 1 3 1 3 6 3 3 1 4 8 11 5 7 6 10 5 3 12 9 19 13 5 6 11 8 13 16 13 29 18 22 10 6 6 6 8 8 7
2 2 1 2 2 2 3 2 2 2 3 2 2 2 3 2 3 2 3 2 2 5 5 5 5 4 19 9 7 15 15 8 13 14 18 22 30 17 12 8 15 16 10 6 6
1 1 2 4 3 1 1 3 5 2 1 2 2 2 1 3 0 3 4 4 3 2 1 2 2 2 3 2 2 10 9 14 4 3 10 11 9 17 15 17 14 15 13 12 10
Wind_Direction
3 357 349 350 350 347 345 345 346 347 347 343 346 346 347 343 339 44 47 284 312 322 327 275 27 360 38 69 51 127 63 179 204 151 232 164 147 194 47 128 215 184 163 277 151
352 350 347 344 344 342 340 341 341 341 342 332 337 343 343 349 36 64 235 323 324 339 37 39 40 1 35 27 15 80 114 220 189 188 194 154 146 173 150 197 239 200 338 88 132
344 345 343 340 340 339 338 336 336 333 333 324 325 333 338 4 53 341 331 333 329 356 117 94 168 86 60 32 14 151 190 177 138 151 109 126 306 206 178 234 217 202 184 168 168
341 341 341 340 341 338 338 334 331 328 324 313 312 322 335 87 291 307 337 332 333 170 131 68 37 65 77 1 4 341 350 207 174 125 104 162 23 283 202 222 226 208 173 167 180
339 338 340 341 340 339 336 333 329 327 317 300 298 319 150 42 265 328 340 346 25 114 67 101 78 108 90 86 2 55 15 24 69 114 67 27 258 246 260 257 273 146 166 186 195
330 333 336 338 337 334 332 330 325 324 309 287 291 300 90 339 163 332 341 6 25 54 58 48 149 165 104 89 94 355 66 22 355 25 13 307 261 12 256 330 221 192 200 208 210
318 325 328 329 330 330 328 327 324 320 299 278 302 320 89 210 168 329 40 113 0 66 115 147 143 137 138 106 191 109 353 319 7 356 355 21 281 239 263 13 212 226 226 223 230
316 322 326 328 328 327 324 323 325 334 296 295 324 353 232 140 147 36 349 121 26 81 105 139 134 103 65 149 29 58 53 16 316 357 354 64 276 295 2 177 234 239 250 246 244
305 319 325 329 329 325 321 319 308 346 290 321 331 357 267 125 180 232 127 158 331 91 84 118 82 89 38 86 21 11 211 216 310 52 303 149 277 258 32 196 251 247 245 250 266
296 311 325 332 330 327 321 310 298 27 300 133 73 5 115 263 359 333 123 114 133 113 73 47 52 85 53 95 218 196 194 223 234 230 188 223 256 266 251 207 237 234 236 244 248
291 312 326 330 331 328 339 24 18 353 28 206 262 285 343 319 343 338 312 131 106 71 156 12 100 206 209 191 165 144 177 214 254 85 298 257 273 277 274 232 243 234 223 226 234
266 305 323 327 329 329 20 85 146 178 309 245 225 234 202 1 316 309 325 178 152 179 126 47 231 217 126 156 152 170 182 235 277 115 169 343 291 269 267 252 231 238 228 226 208
252 303 327 329 328 30 13 119 131 143 136 305 239 212 178 119 215 280 30 315 134 150 184 169 228 122 140 153 161 207 190 192 215 319 124 319 294 322 303 241 250 259 255 252 212
256 288 335 333 50 319 56 84 91 33 56 269 201 232 151 134 253 281 45 108 7 218 160 240 295 158 168 186 140 232 183 123 127 79 232 18 275 292 270 289 256 242 227 240 224
246 236 28 36 150 81 248 171 107 71 16 255 192 144 158 173 130 225 204 92 179 168 104 254 170 186 194 218 170 211 85 87 62 73 20 329 108 275 256 285 269 247 215 209 206
221 209 87 89 140 228 202 139 48 47 249 326 148 198 158 186 192 125 146 114 158 129 97 245 336 186 236 40 16 150 76 62 71 97 321 208 180 255 249 229 289 297 269 221 208
59 326 184 194 220 185 154 60 44 157 281 220 230 171 268 176 191 187 167 180 162 124 218 229 200 178 145 79 17 54 77 325 332 2 233 110 149 247 264 259 233 275 335 230 203
85 63 323 246 221 22 79 66 192 220 240 293 118 103 223 163 203 157 117 234 275 66 115 166 303 171 186 187 179 184 166 169 228 224 283 26 234 246 246 295 259 269 258 210 206
112 67 290 274 238 293 100 206 198 194 197 170 116 156 244 240 179 148 195 217 211 178 186 163 276 49 90 135 136 193 187 184 27 131 15 214 278 286 263 277 256 254 269 252 222
99 142 218 198 161 180 217 219 216 202 200 143 188 171 202 204 168 180 194 213 236 201 3 216 275 46 111 105 37 173 173 83 9 265 260 239 255 231 252 255 264 260 249 252 231
83 135 306 296 154 217 222 226 202 221 189 182 209 210 201 193 192 205 210 251 216 130 169 156 165 254 123 200 179 147 218 259 149 162 218 297 260 210 219 218 256 273 263 242 228
115 204 8 193 200 215 220 199 211 211 207 203 241 198 197 194 211 225 212 252 181 156 164 218 165 204 211 273 209 209 204 172 192 230 229 146 266 167 167 127 215 276 287 261 231
139 259 345 341 218 214 215 212 107 206 194 208 214 199 193 195 245 204 190 14 57 109 160 178 230 299 309 10 9 218 212 215 32 71 241 211 265 9 22 340 310 287 296 275 242
119 198 250 47 0 344 194 112 170 18 69 10 334 323 196 228 228 254 208 46 51 50 7 305 229 214 246 186 105 197 206 209 217 244 265 246 280 265 274 306 293 293 283 288 257
42 179 350 174 128 105 79 72 98 39 63 10 61 35 63 253 251 254 345 342 57 4 29 33 256 244 265 269 304 265 258 233 218 239 236 272 259 277 304 323 339 334 331 323 300
145 192 62 80 68 74 28 69 75 81 49 31 67 63 53 68 19 91 27 35 22 3 30 1 288 328 275 286 299 279 284 276 262 268 261 262 272 284 299 308 311 308 305 280 282
182 40 125 138 137 118 70 67 77 35 55 9 109 96 90 67 298 233 214 221 228 297 274 270 288 19 260 104 338 283 263 235 254 347 306 274 343 7 347 320 297 284 268 247 238